Date String (YYYY-MM-DD hh:mm:ss) UTC,Instrument flags,absolute air pressure of the measurement (hPa),sample flow rate (lpm),inlet stack bypass flow (lpm),air temperature of the measurement (°C),ambient temperature measured by the external sensor (°C),aerosol sample conditioner tube jacket temperature (°C),OPC LED temperature (°C),internal box temperature (°C),relative humidity of the measurement (%),span deviation,mass concentration of particles derived from Lorenz-Mie calculation of OPC scattering (μg/m³),mass concentration of particles derived from Lorenz-Mie calculation of OPC scattering (μg/m³),mass concentration of particles derived from Lorenz-Mie calculation of OPC scattering (μg/m³)
DateTimeUTC,F1_M11,P_M11,Q1_M11,Q2_M11,T1_M11,T2_M11,T3_M11,T4_M11,T5_M11,U1_M11,ZSPAN_M11,X0_M11,X2_M11,X1_M11
2023-10-17 11:00:00,SystemResetWarning,0830.7,5.01,000.00,028.5,027.0,000.0,036.9,030.1,13.2,0000.0,0004.95,0001.77,0001.39
2023-10-17 11:01:00,SystemResetWarning,0830.8,5.00,000.00,028.5,027.0,000.0,036.9,030.1,13.2,0000.0,0005.13,0001.80,0001.42
2023-10-17 11:02:00,SystemResetWarning,0830.8,5.00,000.00,028.5,027.0,000.0,036.9,030.1,13.2,0000.0,0005.27,0001.85,0001.45
2023-10-17 11:03:00,SystemResetWarning,0830.8,5.00,000.00,028.5,026.9,000.0,036.9,030.1,13.2,0000.0,0005.40,0001.88,0001.47
2023-10-17 11:04:00,SystemResetWarning,0830.8,5.00,000.00,028.4,026.9,000.0,036.9,030.0,13.2,0000.0,0005.36,0001.87,0001.46
2023-10-17 11:05:00,SystemResetWarning,0830.8,4.99,000.00,028.4,026.9,000.0,036.9,030.0,13.4,0000.0,0005.48,0001.89,0001.46
2023-10-17 11:06:00,SystemResetWarning,0830.8,5.00,000.00,028.4,026.9,000.0,036.9,030.1,13.4,0000.0,0005.31,0001.82,0001.43
2023-10-17 11:07:00,SystemResetWarning,0830.8,5.00,000.00,028.5,026.9,000.0,036.9,030.1,13.3,0000.0,0005.90,0001.78,0001.39
2023-10-17 11:08:00,SystemResetWarning,0830.8,5.00,000.00,028.5,027.0,000.0,036.9,030.1,13.3,0000.0,0006.43,0001.76,0001.36
2023-10-17 11:09:00,SystemResetWarning,0830.8,5.00,000.00,028.5,027.0,000.0,036.9,030.1,13.2,0000.0,0005.93,0001.69,0001.33
2023-10-17 11:10:00,SystemResetWarning,0830.8,5.00,000.00,028.5,027.0,000.0,036.9,030.1,13.1,0000.0,0005.74,0001.61,0001.30
2023-10-17 11:11:00,SystemResetWarning,0830.7,5.00,000.00,028.5,027.0,000.0,036.9,030.1,13.1,0000.0,0004.31,0001.58,0001.28
2023-10-17 11:12:00,SystemResetWarning,0830.7,5.00,000.00,028.5,027.0,000.0,036.9,030.1,13.1,0000.0,0004.80,0001.57,0001.26
2023-10-17 11:13:00,SystemResetWarning,0830.7,5.00,000.00,028.5,026.9,000.0,036.9,030.1,13.1,0000.0,0005.91,0001.59,0001.25
2023-10-17 11:14:00,SystemResetWarning,0830.7,5.00,000.00,028.5,026.9,000.0,036.9,030.1,13.0,0000.0,0005.90,0001.61,0001.27
2023-10-17 11:15:00,SystemResetWarning,0830.6,5.00,000.00,028.5,026.9,000.0,036.9,030.1,13.1,0000.0,0007.04,0001.60,0001.28
2023-10-17 11:16:00,SystemResetWarning,0830.6,5.00,000.00,028.5,027.0,000.0,036.9,030.1,13.1,0000.0,0007.01,0001.64,0001.31
2023-10-17 11:17:00,SystemResetWarning,0830.6,5.01,000.00,028.5,027.0,000.0,036.9,030.1,13.1,0000.0,0007.46,0001.72,0001.33
2023-10-17 11:18:00,SystemResetWarning,0830.6,5.00,000.00,028.5,027.0,000.0,036.9,030.1,13.1,0000.0,0006.97,0001.74,0001.34
2023-10-17 11:19:00,SystemResetWarning,0830.6,5.00,000.00,028.5,027.0,000.0,036.9,030.1,13.2,0000.0,0006.26,0001.71,0001.32
2023-10-17 11:20:00,SystemResetWarning,0830.7,5.00,000.00,028.5,027.0,000.0,036.9,030.1,13.1,0000.0,0006.08,0001.71,0001.31
2023-10-17 11:21:00,SystemResetWarning,0830.7,5.00,000.00,028.5,027.0,000.0,036.9,030.1,13.1,0000.0,0005.99,0001.68,0001.29
2023-10-17 11:22:00,SystemResetWarning,0830.7,5.00,000.00,028.5,027.0,000.0,036.9,030.1,13.1,0000.0,0006.08,0001.71,0001.29
2023-10-17 11:23:00,SystemResetWarning,0830.6,5.00,000.00,028.5,027.0,000.0,036.9,030.1,13.1,0000.0,0007.47,0001.75,0001.30
2023-10-17 11:24:00,SystemResetWarning,0830.7,5.00,000.00,028.5,026.9,000.0,036.9,030.1,13.1,0000.0,0006.38,0001.74,0001.32
2023-10-17 11:25:00,SystemResetWarning,0830.6,5.00,000.00,028.5,026.9,000.0,036.9,030.1,13.1,0000.0,0006.43,0001.76,0001.32
2023-10-17 11:26:00,SystemResetWarning,0830.6,5.00,000.00,028.5,026.9,000.0,036.9,030.1,13.0,0000.0,0005.68,0001.78,0001.30
2023-10-17 11:27:00,SystemResetWarning,0830.5,5.00,000.00,028.5,026.9,000.0,036.9,030.1,13.1,0000.0,0005.29,0001.77,0001.28
2023-10-17 11:28:00,SystemResetWarning,0830.5,5.00,000.00,028.4,026.9,000.0,036.9,030.1,13.1,0000.0,0004.77,0001.71,0001.24
2023-10-17 11:29:00,SystemResetWarning,0830.4,5.00,000.00,028.4,026.9,000.0,036.9,030.1,13.1,0000.0,0004.73,0001.69,0001.23
2023-10-17 11:30:00,SystemResetWarning,0830.5,5.00,000.00,028.4,026.9,000.0,036.9,030.1,13.0,0000.0,0004.74,0001.69,0001.22
2023-10-17 11:31:00,SystemResetWarning,0830.6,5.00,000.00,028.4,026.9,000.0,036.9,030.1,13.1,0000.0,0004.73,0001.66,0001.20
2023-10-17 11:32:00,SystemResetWarning,0830.4,5.00,000.00,028.4,026.9,000.0,036.9,030.0,13.1,0000.0,0004.82,0001.65,0001.19
2023-10-17 11:33:00,SystemResetWarning,0830.8,5.00,000.00,028.4,026.9,000.0,036.9,030.0,13.2,0000.0,0004.77,0001.62,0001.19
2023-10-17 11:34:00,SystemResetWarning,0830.5,5.00,000.00,028.4,026.9,000.0,036.9,030.0,13.2,0000.0,0003.47,0001.55,0001.16
2023-10-17 11:35:00,SystemResetWarning,0830.5,5.00,000.00,028.4,026.9,000.0,036.9,030.0,13.0,0000.0,0002.59,0001.52,0001.14
2023-10-17 11:36:00,SystemResetWarning,0830.7,5.00,000.00,028.4,026.9,000.0,036.9,030.0,12.9,0000.0,0002.58,0001.49,0001.14
2023-10-17 11:37:00,SystemResetWarning,0830.4,5.00,000.00,028.4,026.9,000.0,036.9,030.0,13.0,0000.0,0002.59,0001.47,0001.15
2023-10-17 11:38:00,SystemResetWarning,0830.5,5.00,000.00,028.4,026.9,000.0,036.9,030.0,13.1,0000.0,0002.56,0001.45,0001.14
2023-10-17 11:39:00,SystemResetWarning,0830.6,4.98,000.00,028.4,026.9,000.0,036.9,030.0,13.0,0000.0,0002.58,0001.44,0001.16
2023-10-17 11:40:00,SystemResetWarning,0830.6,5.01,000.00,028.4,026.9,000.0,036.9,030.0,13.0,0000.0,0003.61,0001.41,0001.14
2023-10-17 11:41:00,SystemResetWarning,0830.5,5.01,000.00,028.4,026.9,000.0,036.9,030.1,13.3,0000.0,0003.69,0001.38,0001.14
2023-10-17 11:42:00,SystemResetWarning,0830.5,5.01,000.00,028.4,026.9,000.0,036.9,030.1,13.2,0000.0,0003.63,0001.37,0001.16
2023-10-17 11:43:00,SystemResetWarning,0830.5,5.00,000.00,028.4,026.9,000.0,036.9,030.1,13.1,0000.0,0003.55,0001.37,0001.16
2023-10-17 11:44:00,SystemResetWarning,0830.5,5.00,000.00,028.4,026.9,000.0,036.9,030.1,13.1,0000.0,0003.58,0001.37,0001.17
2023-10-17 11:45:00,SystemResetWarning,0830.6,5.00,000.00,028.5,027.0,000.0,036.9,030.1,13.1,0000.0,0003.61,0001.42,0001.19
2023-10-17 11:46:00,SystemResetWarning,0830.6,4.99,000.00,028.5,027.0,000.0,036.9,030.1,13.3,0000.0,0003.59,0001.41,0001.18
2023-10-17 11:47:00,SystemResetWarning,0830.6,5.00,000.00,028.4,026.9,000.0,036.9,030.1,13.4,0000.0,0003.47,0001.37,0001.15
2023-10-17 11:48:00,SystemResetWarning,0830.6,5.00,000.00,028.4,026.9,000.0,036.9,030.1,13.4,0000.0,0003.23,0001.31,0001.11
2023-10-17 11:49:00,SystemResetWarning,0830.6,5.00,000.00,028.4,026.9,000.0,036.9,030.0,13.4,0000.0,0003.15,0001.28,0001.10
2023-10-17 11:50:00,SystemResetWarning,0830.6,5.01,000.00,028.4,026.9,000.0,036.9,030.0,13.3,0000.0,0003.04,0001.25,0001.09
2023-10-17 11:51:00,SystemResetWarning,0830.6,5.01,000.00,028.4,026.9,000.0,036.9,030.0,13.5,0000.0,0001.92,0001.21,0001.08
2023-10-17 11:52:00,SystemResetWarning,0830.6,5.01,000.00,028.4,026.8,000.0,036.9,030.0,13.6,0000.0,0001.58,0001.18,0001.06
2023-10-17 11:53:00,SystemResetWarning,0830.6,5.00,000.00,028.4,026.8,000.0,036.9,030.0,13.2,0000.0,0001.61,0001.17,0001.03
2023-10-17 11:54:00,SystemResetWarning,0830.6,5.00,000.00,028.4,026.8,000.0,036.9,030.0,13.2,0000.0,0001.74,0001.15,0001.01
2023-10-17 11:55:00,SystemResetWarning,0830.7,5.00,000.00,028.4,026.8,000.0,036.9,030.0,13.4,0000.0,0001.71,0001.14,0001.00
2023-10-17 11:56:00,SystemResetWarning,0830.6,5.00,000.00,028.4,026.8,000.0,036.9,030.0,13.6,0000.0,0001.68,0001.13,0000.98
2023-10-17 11:57:00,SystemResetWarning,0830.7,5.00,000.00,028.4,026.8,000.0,036.9,030.0,13.8,0000.0,0001.61,0001.11,0000.97
2023-10-17 11:58:00,SystemResetWarning,0830.7,5.00,000.00,028.4,026.9,000.0,036.9,030.0,14.0,0000.0,0001.59,0001.10,0000.97
2023-10-17 11:59:00,SystemResetWarning,0830.7,5.00,000.00,028.4,026.9,000.0,036.9,030.0,14.0,0000.0,0001.60,0001.10,0000.97
